Retour au catalogue

SL-24 R/B

ActifPO
NORAD 28367·ROCKET BODY·🇷🇺 Russia

Lancé Jun 29, 2004 depuis Baikonur Cosmodrome

Loading…

Prochains Passages (prochaines 24 heures)

TLE

FraisSource: Space-Track

Époque: Sep 14, 2026, 07:50 UTC

1 28367U 04025B   26257.32676021  .00000051  00000-0  45940-4 0  9998
2 28367  98.2211 204.8463 0349259 354.1601 169.7068 13.88649978125299

Suivez SL-24 R/B en temps réel avec AllMySat

Download on the App Store